Погода в Аксиньино

Россия / Тульская область     54°30′18″N   38°20′46″E
темп.,
°C
ветер,
м/с
пор.,
м/с
влажн.,
%
обл.,
%
осадки,
мм/ч
давл.,
гПа
погр.,
м
24 мая, вт
вт2400:00+5зсз496699 0.0 1006130
03:00+4зсз4968100 0.0 1006159
06:00+5зсз3868100 0.0 1007213
09:00+9зсз5954100 0.0 1006908
12:00+11зсз71044100 0.0 10071793
15:00+10ссз795199 0.0 10081896
18:00+7ссз577068 0.1 1010913
21:00+3с367610 0.1 1012102
25 мая, ср
ср2500:00+1ссз35865 0.0 101386
03:000ссз34945 0.0 101574
06:00+2ссз35865 0.0 1015187
09:00+7ссз456256 0.0 10151235
12:00+8сз4556100 0.0 10161485
15:00+9сз3557100 0.1 10161389
18:00+9зсз3467100 0.0 10151169
21:00+7з237598 0.0 101574
26 мая, чт
чт2600:00+5зюз349154 0.0 101565
03:00+4юз3393100 0.0 101440
06:00+6ююз3590100 0.0 1012144
09:00+13зюз4670100 0.0 1010479
12:00+18юз675890 0.5 10081459
15:00+16юз81072100 0.9 10071184
18:00+10ю51094100 1.1 1005590
21:00+9юз3899100 3.3 1002521
27 мая, пт
пт2700:00+9з4998100 1.1 1001471
03:00+8з6129734 1.5 1002285
06:00+9зюз61397100 0.3 1001619
09:00+11з9128760 3.4 10011041
12:00+11з9128244 0.2 1003975
15:00+14з8127116 0.8 10041606
18:00+14з811685 0.3 10041097
21:00+9юз4118019 0.3 1005206
28 мая, сб
сб2800:00+8ююз51283100 0.0 1004230
03:00+8ююз3896100 1.7 1001405
06:00+9з3897100 3.9 1000349
09:00+12з7108287 4.1 10001000
12:00+14з811565 0.3 10021878
15:00+12зюз7106344 0.3 10031286
18:00+11зюз6107685 0.6 10041090
21:00+8юз51183100 0.6 1006381